This is the latest recevied weather packets stored in our database for station/object NO4D. If no packets are shown the sender has not sent any weather packets the latest 10 day(s).
| Time | Temp. | Humidity | Pressure | Rain* | Wind** | Luminosity | Snow |
|---|---|---|---|---|---|---|---|
| 1777983079 | 15.56° C | 80% | 1016.8 hPa | 0 mm | - | 115 W/m² | - |
| 1777982775 | 15° C | 81% | 1016.7 hPa | 0 mm | - | 104 W/m² | - |
| 1777982471 | 15° C | 81% | 1016.7 hPa | 0 mm | - | 103 W/m² | - |
| 1777982166 | 14.44° C | 82% | 1016.8 hPa | 0 mm | - | 92 W/m² | - |
| 1777981864 | 14.44° C | 83% | 1016.4 hPa | 0 mm | - | 61 W/m² | - |
| 1777981561 | 14.44° C | 83% | 1016.4 hPa | 0 mm | - | 43 W/m² | - |
| 1777981257 | 13.89° C | 85% | 1016.6 hPa | 0 mm | - | 37 W/m² | - |
| 1777980953 | 13.33° C | 85% | 1016.6 hPa | 0 mm | - | 35 W/m² | - |
| 1777980650 | 13.33° C | 86% | 1016.6 hPa | 0 mm | - | 33 W/m² | - |
| 1777980347 | 13.33° C | 86% | 1016.5 hPa | 0 mm | - | 30 W/m² | - |
| 1777980045 | 13.33° C | 85% | 1016.7 hPa | 0 mm | - | 28 W/m² | - |
| 1777979744 | 13.33° C | 85% | 1016.7 hPa | 0 mm | - | 26 W/m² | - |
| 1777979440 | 13.33° C | 85% | 1016.6 hPa | 0 mm | - | 21 W/m² | - |
| 1777979137 | 13.33° C | 85% | 1016.5 hPa | 0 mm | - | 19 W/m² | - |
| 1777978834 | 13.33° C | 85% | 1016.6 hPa | 0 mm | - | 16 W/m² | - |
| 1777978530 | 13.33° C | 85% | 1016.6 hPa | 0 mm | - | 13 W/m² | - |
| 1777978226 | 13.33° C | 85% | 1016.4 hPa | 0 mm | - | 11 W/m² | - |
| 1777977923 | 13.33° C | 85% | 1016.5 hPa | 0 mm | - | 6 W/m² | - |
| 1777977621 | 13.33° C | 85% | 1016.5 hPa | 0 mm | - | 3 W/m² | - |
| 1777977317 | 13.33° C | 85% | 1016.1 hPa | 0 mm | - | 2 W/m² | - |
| 1777977015 | 13.33° C | 85% | 1016.4 hPa | 0 mm | - | 0 W/m² | - |
| 1777976712 | 12.78° C | 84% | 1016.2 hPa | 0 mm | - | 0 W/m² | - |
| 1777976409 | 12.78° C | 84% | 1016.2 hPa | 0 mm | - | 0 W/m² | - |
| 1777976108 | 12.78° C | 84% | 1016.2 hPa | 0 mm | - | 0 W/m² | - |
| 1777975804 | 12.78° C | 83% | 1016.1 hPa | 0 mm | - | 0 W/m² | - |
* Rain latest hour (hover to see other rain measurements)
** Current wind speed in m/s (hover to see current wind gust speed)